Weather History for KSYF - September, 2013

Change the Weather History Date:

Thursday, September 5, 2013

  Actual Average Record
Temperature  
Mean Temperature 84 °F -  
Max Temperature 100 °F 87 °F 100 °F (2013)
Min Temperature 68 °F 55 °F 53 °F (2014)
Cooling Degree Days 19    
Growing Degree Days 34 (Base 50)    
Moisture  
Dew Point 44 °F    
Average Humidity 31    
Maximum Humidity 58    
Minimum Humidity 9    
Precipitation  
Precipitation 0.00 in - - ()
Sea Level Pressure  
Sea Level Pressure 30.12 in    
Wind  
Wind Speed 11 mph (SSE)    
Max Wind Speed 23 mph    
Max Gust Speed 28 mph    
Visibility 10 miles    
Events      
Averages and records for this station are not official NWS values.
T = Trace of Precipitation, MM = Missing Value Source: NWS Daily Summary

Daily Weather History Graph

Daily Weather History Graph

Search for Another Location

Airport or City:

Trip Planner

Search our weather history database for the weather conditions in past years. The results will help you decide how hot, cold, wet, or windy it might be!

Date:

Astronomy

Sep. 05, 2013 Rise Set
Actual Time 7:19 AM CDT 8:11 PM CDT
Civil Twilight 6:51 AM CDT 8:38 PM CDT
Nautical Twilight 6:19 AM CDT 9:11 PM CDT
Astronomical Twilight 5:45 AM CDT 9:45 PM CDT
Moon 7:32 AM CDT (9/5) 8:04 PM CDT (9/5)
Length of Visible Light 13h 47m
Length of Day
12h 52m
New Moon, 0% of the Moon is Illuminated
Sep 5
New Moon
Sep 12
First Quarter
Sep 19
Full
Sep 26
Last Quarter
Oct 4
New

Hourly Weather History & Observations

Time (CDT) Temp. Dew Point Humidity Pressure Visibility Wind Dir Wind Speed Gust Speed Precip Events Conditions
12:15 AM 76.6 °F 50.0 °F 39% 30.13 in 10.0 mi SSE 15.0 mph - N/A   Clear
12:35 AM 76.1 °F 50.9 °F 41% 30.14 in 10.0 mi SSE 13.8 mph - N/A   Clear
12:55 AM 75.4 °F 52.0 °F 44% 30.15 in 10.0 mi SSE 10.4 mph - N/A   Clear
1:15 AM 75.2 °F 52.2 °F 44% 30.15 in 10.0 mi South 4.6 mph - N/A   Clear
1:35 AM 73.4 °F 52.9 °F 49% 30.18 in 10.0 mi NNW 11.5 mph - N/A   Clear
1:55 AM 76.6 °F 52.0 °F 42% 30.17 in 10.0 mi SSE 6.9 mph 18.4 mph N/A   Clear
2:15 AM 75.2 °F 52.2 °F 44% 30.19 in 10.0 mi Calm Calm - N/A   Clear
2:35 AM 74.8 °F 52.3 °F 45% 30.18 in 10.0 mi North 9.2 mph - N/A   Clear
2:55 AM 73.9 °F 52.3 °F 47% 30.17 in 10.0 mi South 4.6 mph - N/A   Clear
3:15 AM 73.8 °F 52.5 °F 47% 30.17 in 10.0 mi SE 4.6 mph - N/A   Clear
3:35 AM 72.7 °F 52.3 °F 49% 30.17 in 10.0 mi Calm Calm - N/A   Clear
3:55 AM 71.6 °F 52.7 °F 51% 30.17 in 10.0 mi SE 3.5 mph - N/A   Clear
4:15 AM 70.7 °F 52.9 °F 53% 30.15 in 10.0 mi ESE 8.1 mph - N/A   Clear
4:35 AM 70.3 °F 52.7 °F 53% 30.15 in 10.0 mi SE 8.1 mph - N/A   Clear
4:55 AM 69.3 °F 52.7 °F 56% 30.15 in 10.0 mi SE 6.9 mph - N/A   Clear
5:15 AM 68.0 °F 52.7 °F 58% 30.15 in 10.0 mi SE 4.6 mph - N/A   Clear
5:35 AM 69.4 °F 52.5 °F 55% 30.15 in 10.0 mi ESE 3.5 mph - N/A   Clear
5:55 AM 68.9 °F 52.7 °F 56% 30.13 in 10.0 mi SSE 5.8 mph - N/A   Clear
6:15 AM 68.0 °F 52.9 °F 58% 30.13 in 10.0 mi SSE 6.9 mph - N/A   Clear
6:35 AM 68.2 °F 52.7 °F 58% 30.13 in 10.0 mi SSE 10.4 mph - N/A   Clear
6:55 AM 68.2 °F 52.5 °F 57% 30.13 in 10.0 mi South 9.2 mph - N/A   Clear
7:15 AM 68.2 °F 52.3 °F 57% 30.14 in 10.0 mi SSE 9.2 mph - N/A   Clear
7:35 AM 68.9 °F 52.5 °F 56% 30.14 in 10.0 mi SSE 10.4 mph - N/A   Clear
7:55 AM 69.8 °F 52.5 °F 54% 30.14 in 10.0 mi SSE 10.4 mph - N/A   Clear
8:15 AM 70.9 °F 52.3 °F 52% 30.14 in 10.0 mi South 11.5 mph - N/A   Clear
8:35 AM 72.7 °F 52.0 °F 48% 30.14 in 10.0 mi South 13.8 mph - N/A   Clear
8:55 AM 74.5 °F 51.4 °F 44% 30.14 in 10.0 mi South 15.0 mph - N/A   Clear
9:15 AM 76.6 °F 50.7 °F 40% 30.15 in 10.0 mi South 12.7 mph - N/A   Clear
9:35 AM 75.4 °F 51.1 °F 42% 30.15 in 10.0 mi South 10.4 mph - N/A   Clear
9:55 AM 76.3 °F 51.1 °F 41% 30.15 in 10.0 mi SSW 9.2 mph - N/A   Clear
10:15 AM 77.4 °F 51.1 °F 40% 30.15 in 10.0 mi South 6.9 mph - N/A   Clear
10:35 AM 79.2 °F 49.5 °F 35% 30.16 in 10.0 mi South 6.9 mph - N/A   Clear
10:55 AM 80.6 °F 49.6 °F 34% 30.16 in 10.0 mi South 9.2 mph - N/A   Clear
11:15 AM 82.9 °F 48.7 °F 30% 30.15 in 10.0 mi South 6.9 mph - N/A   Clear
11:35 AM 84.7 °F 46.9 °F 27% 30.15 in 10.0 mi South 6.9 mph - N/A   Clear
11:55 AM 86.0 °F 43.9 °F 23% 30.15 in 10.0 mi SSW 6.9 mph - N/A   Clear
12:15 PM 88.7 °F 44.4 °F 21% 30.15 in 10.0 mi SW 3.5 mph - N/A   Clear
12:35 PM 91.2 °F 41.4 °F 18% 30.14 in 10.0 mi SSE 6.9 mph - N/A   Clear
12:55 PM 93.6 °F 35.8 °F 13% 30.14 in 10.0 mi South 12.7 mph - N/A   Clear
1:15 PM 96.4 °F 32.7 °F 11% 30.12 in 10.0 mi SSE 13.8 mph 18.4 mph N/A   Clear
1:35 PM 96.6 °F 32.4 °F 10% 30.12 in 10.0 mi SSE 16.1 mph 20.7 mph N/A   Clear
1:55 PM 98.4 °F 31.8 °F 10% 30.12 in 10.0 mi SSE 16.1 mph 20.7 mph N/A   Clear
2:15 PM 98.8 °F 31.5 °F 9% 30.10 in 10.0 mi South 18.4 mph - N/A   Clear
2:35 PM 100.0 °F 32.0 °F 9% 30.10 in 10.0 mi SSE 18.4 mph 26.5 mph N/A   Clear
2:55 PM 99.0 °F 32.2 °F 10% 30.10 in 10.0 mi SE 17.3 mph 23.0 mph N/A   Clear
3:15 PM 99.9 °F 34.0 °F 10% 30.10 in 10.0 mi SSE 13.8 mph - N/A   Clear
3:35 PM 99.7 °F 34.3 °F 10% 30.09 in 10.0 mi SSE 15.0 mph 24.2 mph N/A   Clear
3:55 PM 99.9 °F 34.2 °F 10% 30.08 in 10.0 mi SSE 20.7 mph 24.2 mph N/A   Clear
4:15 PM 100.0 °F 32.5 °F 9% 30.08 in 10.0 mi SSE 19.6 mph 26.5 mph N/A   Clear
4:35 PM 100.4 °F 31.6 °F 9% 30.07 in 10.0 mi SSE 16.1 mph 26.5 mph N/A   Clear
4:55 PM 100.2 °F 31.1 °F 9% 30.07 in 10.0 mi SSE 19.6 mph 24.2 mph N/A   Clear
5:15 PM 99.3 °F 31.5 °F 9% 30.07 in 10.0 mi SSE 21.9 mph 25.3 mph N/A   Clear
5:35 PM 99.5 °F 30.7 °F 9% 30.06 in 10.0 mi South 20.7 mph 25.3 mph N/A   Clear
5:55 PM 98.2 °F 31.5 °F 10% 30.06 in 10.0 mi SSE 18.4 mph 27.6 mph N/A   Clear
6:15 PM 97.2 °F 32.0 °F 10% 30.06 in 10.0 mi SSE 21.9 mph 26.5 mph N/A   Clear
6:35 PM 96.8 °F 33.4 °F 11% 30.06 in 10.0 mi SSE 23.0 mph 27.6 mph N/A   Clear
6:55 PM 95.4 °F 34.7 °F 12% 30.06 in 10.0 mi SSE 19.6 mph 26.5 mph N/A   Clear
7:15 PM 93.9 °F 35.4 °F 13% 30.05 in 10.0 mi SSE 19.6 mph 24.2 mph N/A   Clear
7:35 PM 91.6 °F 36.9 °F 15% 30.06 in 10.0 mi SSE 17.3 mph - N/A   Clear
7:55 PM 89.6 °F 37.8 °F 16% 30.06 in 10.0 mi SSE 16.1 mph - N/A   Clear
8:15 PM 87.3 °F 38.5 °F 18% 30.07 in 10.0 mi SSE 13.8 mph - N/A   Clear
8:35 PM 85.1 °F 39.7 °F 20% 30.07 in 10.0 mi SSE 15.0 mph - N/A   Clear
8:55 PM 84.2 °F 40.1 °F 21% 30.07 in 10.0 mi SSE 15.0 mph - N/A   Clear
9:15 PM 82.6 °F 40.5 °F 22% 30.08 in 10.0 mi SSE 13.8 mph - N/A   Clear
9:35 PM 80.6 °F 41.2 °F 25% 30.08 in 10.0 mi SSE 13.8 mph - N/A   Clear
9:55 PM 79.9 °F 41.4 °F 25% 30.09 in 10.0 mi SSE 15.0 mph - N/A   Clear
10:15 PM 80.1 °F 41.5 °F 25% 30.09 in 10.0 mi SSE 17.3 mph - N/A   Clear
10:35 PM 79.9 °F 42.1 °F 26% 30.09 in 10.0 mi SSE 17.3 mph 21.9 mph N/A   Clear
10:55 PM 79.7 °F 42.3 °F 26% 30.09 in 10.0 mi SSE 18.4 mph - N/A   Clear
11:15 PM 78.4 °F 42.8 °F 28% 30.09 in 10.0 mi SSE 16.1 mph - N/A   Clear
11:35 PM 77.7 °F 42.8 °F 29% 30.09 in 10.0 mi South 15.0 mph - N/A   Clear
11:55 PM 77.0 °F 42.4 °F 29% 30.09 in 10.0 mi South 16.1 mph - N/A   Clear